Weather History for St. Paul, MN

Change the Weather History Date:

Friday, September 20, 2013

  Actual Average Record
Temperature  
Mean Temperature 60 °F -  
Max Temperature 66 °F 67 °F 82 °F (2005)
Min Temperature 52 °F 47 °F 37 °F (2006)
Degree Days  
Heating Degree Days 6    
Growing Degree Days 10 (Base 50)    
Moisture  
Dew Point 51 °F    
Average Humidity 73    
Maximum Humidity 83    
Minimum Humidity 50    
Precipitation  
Precipitation 0.02 in - - ()
Sea Level Pressure  
Sea Level Pressure 29.85 in    
Wind  
Wind Speed 13 mph (WNW)    
Max Wind Speed 20 mph    
Max Gust Speed 28 mph    
Visibility 10 miles    
Events Rain    
Averages and records for this station are not official NWS values.
T = Trace of Precipitation, MM = Missing Value Source: NWS Daily Summary

Daily Weather History Graph

Daily Weather History Graph

Search for Another Location

Airport:

Trip Planner

Search our weather history database for the weather conditions in past years. The results will help you decide how hot, cold, wet, or windy it might be!

Date:

Astronomy

Sep. 20, 2013 Rise Set
Actual Time 6:57 AM CDT 7:13 PM CDT
Civil Twilight 6:27 AM CDT 7:42 PM CDT
Nautical Twilight 5:53 AM CDT 8:16 PM CDT
Astronomical Twilight 5:17 AM CDT 8:52 PM CDT
Moon 7:40 PM CDT (9/20) 8:17 AM CDT (9/20)
Length of Visible Light 13h 14m
Length of Day
12h 15m
Full, 98% of the Moon is Illuminated
Sep 20
Full
Sep 26
Last Quarter
Oct 4
New
Oct 11
First Quarter
Oct 18
Full

Hourly Weather History & Observations

Time (CDT) Temp. Dew Point Humidity Pressure Visibility Wind Dir Wind Speed Gust Speed Precip Events Conditions
12:53 AM 64.0 °F 54.0 °F 70% 29.79 in 10.0 mi WNW 15.0 mph 19.6 mph N/A   Clear
1:53 AM 63.0 °F 52.0 °F 67% 29.79 in 10.0 mi West 12.7 mph - N/A   Clear
2:53 AM 61.0 °F 52.0 °F 72% 29.80 in 10.0 mi West 10.4 mph - N/A   Mostly Cloudy
3:53 AM 60.1 °F 52.0 °F 75% 29.81 in 10.0 mi West 13.8 mph - N/A   Overcast
4:53 AM 59.0 °F 52.0 °F 78% 29.81 in 10.0 mi West 9.2 mph - N/A   Mostly Cloudy
5:18 AM 59.0 °F 51.8 °F 77% 29.82 in 10.0 mi West 10.4 mph - N/A   Mostly Cloudy
5:53 AM 57.9 °F 52.0 °F 81% 29.81 in 10.0 mi West 9.2 mph - N/A   Overcast
6:53 AM 57.0 °F 51.1 °F 81% 29.82 in 10.0 mi West 12.7 mph - N/A   Overcast
7:03 AM 57.2 °F 51.8 °F 82% 29.83 in 10.0 mi West 10.4 mph - N/A   Overcast
7:48 AM 57.2 °F 51.8 °F 82% 29.84 in 10.0 mi WSW 6.9 mph - N/A   Overcast
7:53 AM 57.0 °F 51.1 °F 81% 29.83 in 10.0 mi West 10.4 mph - N/A   Overcast
8:53 AM 59.0 °F 52.0 °F 78% 29.83 in 10.0 mi West 11.5 mph - N/A   Overcast
9:53 AM 60.1 °F 53.1 °F 78% 29.84 in 10.0 mi West 9.2 mph - N/A   Overcast
10:53 AM 62.1 °F 53.1 °F 72% 29.84 in 10.0 mi NW 16.1 mph 19.6 mph N/A   Overcast
11:45 AM 60.8 °F 53.6 °F 77% 29.86 in 10.0 mi NW 15.0 mph - 0.01 in Rain Light Rain
11:53 AM 61.0 °F 53.1 °F 75% 29.85 in 10.0 mi WNW 17.3 mph - 0.01 in   Mostly Cloudy
12:12 PM 59.0 °F 53.6 °F 82% 29.86 in 7.0 mi NW 18.4 mph 24.2 mph 0.00 in Rain Light Rain
12:53 PM 62.1 °F 52.0 °F 70% 29.86 in 10.0 mi NW 19.6 mph 25.3 mph 0.00 in   Mostly Cloudy
1:53 PM 66.0 °F 50.0 °F 56% 29.86 in 10.0 mi WNW 12.7 mph - N/A   Mostly Cloudy
2:53 PM 66.0 °F 48.0 °F 52% 29.85 in 10.0 mi NW 16.1 mph 27.6 mph N/A   Overcast
3:53 PM 64.9 °F 46.0 °F 50% 29.85 in 10.0 mi WNW 13.8 mph - N/A   Overcast
4:53 PM 64.0 °F 46.0 °F 52% 29.85 in 10.0 mi WNW 10.4 mph - N/A   Overcast
5:53 PM 63.0 °F 45.0 °F 52% 29.86 in 10.0 mi WNW 15.0 mph 21.9 mph N/A   Mostly Cloudy
6:53 PM 57.0 °F 48.9 °F 74% 29.88 in 10.0 mi WNW 11.5 mph - 0.00 in   Overcast
7:53 PM 55.9 °F 50.0 °F 80% 29.90 in 10.0 mi WNW 11.5 mph - 0.01 in   Overcast
8:53 PM 55.0 °F 48.0 °F 77% 29.92 in 10.0 mi NW 9.2 mph - N/A   Mostly Cloudy
9:53 PM 54.0 °F 48.0 °F 80% 29.93 in 10.0 mi NW 10.4 mph 19.6 mph N/A   Clear
10:53 PM 53.1 °F 46.9 °F 80% 29.93 in 10.0 mi WNW 10.4 mph - N/A   Clear
11:53 PM 52.0 °F 46.9 °F 83% 29.93 in 10.0 mi WNW 9.2 mph - N/A   Clear